FW4606 Weather Reports


time (UTC)temp
C
wind
direction
speed
KPH
gust
KPH
rain 1hr
cm
rain 24hr
cm
rain mn
cm
humidity
%
barometer
mb
20260902094102 19 314 0.0 0.0 0.00 0.00 0.00 89 1012.3
20260902093556 20 314 0.0 0.0 0.00 0.00 0.00 88 1012.2
20260902092544 20 314 0.0 0.0 0.00 0.00 0.00 88 1011.9
20260902092037 20 314 0.0 1.6 0.00 0.00 0.00 88 1012.2
20260902091532 20 314 0.0 1.6 0.00 0.00 0.00 88 1012.2
20260902091026 19 314 0.0 1.6 0.00 0.00 0.00 89 1012.3
20260902090750 19 310 0.0 1.6 0.00 0.00 0.00 89 1012.4
20260902090014 19 310 0.0 1.6 0.00 0.00 0.00 89 1012.2
20260902085508 19 311 0.0 1.6 0.00 0.00 0.00 90 1012.3
20260902085234 19 239 0.0 0.0 0.00 0.00 0.00 90 1012.7
20260902084957 19 239 0.0 0.0 0.00 0.00 0.00 90 1012.9
20260902083950 19 239 0.0 0.0 0.00 0.00 0.00 90 1012.8
20260902083443 19 239 0.0 0.0 0.00 0.00 0.00 90 1012.8
20260902082937 19 239 0.0 0.0 0.00 0.00 0.00 90 1012.8
20260902082432 19 239 0.0 0.0 0.00 0.00 0.00 89 1012.8
20260902082156 19 239 0.0 0.0 0.00 0.00 0.00 89 1013.0
20260902081420 19 239 0.0 0.0 0.00 0.00 0.00 89 1013.2
20260902080914 19 239 0.0 0.0 0.00 0.00 0.00 89 1013.2
20260902080411 19 239 0.0 0.0 0.00 0.00 0.00 89 1013.1
20260902080405 19 239 0.0 0.0 0.00 0.00 0.00 89 1013.0
20260902075627 19 239 0.0 1.6 0.00 0.00 0.00 89 1012.8
20260902075120 19 239 0.0 1.6 0.00 0.00 0.00 89 1013.2
20260902074344 19 152 0.0 0.0 0.00 0.00 0.00 90 1013.2
20260902073838 19 152 0.0 0.0 0.00 0.00 0.00 89 1013.2
20260902073332 19 162 0.0 0.0 0.00 0.00 0.00 89 1013.1
20260902072826 19 162 0.0 0.0 0.00 0.00 0.00 89 1013.1
20260902072320 20 163 0.0 0.0 0.00 0.00 0.00 88 1013.4
20260902071813 20 144 0.0 0.0 0.00 0.00 0.00 88 1013.4
20260902071538 20 144 0.0 1.6 0.00 0.00 0.00 88 1013.5
20260902070802 20 144 0.0 1.6 0.00 0.00 0.00 88 1013.6
20260902070527 20 143 0.0 0.0 0.00 0.00 0.00 88 1013.7
20260902070021 20 144 0.0 0.0 0.00 0.00 0.00 87 1013.8
20260902065245 19 143 0.0 0.0 0.00 0.00 0.00 87 1013.9
20260902064738 19 144 0.0 0.0 0.00 0.00 0.00 87 1014.0
20260902064231 19 144 0.0 0.0 0.00 0.00 0.00 87 1014.2
20260902063726 19 144 0.0 0.0 0.00 0.00 0.00 88 1014.1
20260902063219 18 144 0.0 0.0 0.00 0.00 0.00 88 1014.0
20260902062713 18 144 0.0 0.0 0.00 0.00 0.00 88 1014.0
20260902062207 18 143 0.0 0.0 0.00 0.00 0.00 87 1013.8
20260902061702 19 144 0.0 0.0 0.00 0.00 0.00 87 1013.6
20260902061156 19 144 0.0 0.0 0.00 0.00 0.00 86 1013.2
20260902060650 19 144 0.0 0.0 0.00 0.00 0.00 86 1012.9
20260902060143 19 143 0.0 0.0 0.00 0.00 0.00 85 1012.6
20260902055915 19 143 0.0 0.0 0.00 0.00 0.00 86 1012.7
20260902055141 19 143 0.0 0.0 0.00 0.00 0.00 86 1012.9
20260902054640 19 144 0.0 0.0 0.00 0.00 0.00 86 1013.2
20260902054140 19 144 0.0 0.0 0.00 0.00 0.00 86 1013.5
20260902053910 19 144 0.0 0.0 0.00 0.00 0.00 87 1013.5
20260902053138 19 143 0.0 0.0 0.00 0.00 0.00 86 1013.7
20260902052636 19 143 0.0 0.0 0.00 0.00 0.00 87 1013.7
20260902052132 19 144 0.0 0.0 0.00 0.00 0.00 87 1013.9
20260902051635 19 144 0.0 0.0 0.00 0.00 0.00 86 1014.0
20260902051134 19 144 0.0 0.0 0.00 0.00 0.00 86 1014.0
20260902050631 19 144 0.0 0.0 0.00 0.00 0.00 86 1013.9
20260902050130 19 144 0.0 0.0 0.00 0.00 0.00 86 1013.8
20260902045627 19 143 0.0 0.0 0.00 0.00 0.00 85 1013.7
20260902045125 19 143 0.0 0.0 0.00 0.00 0.00 85 1013.5
20260902044624 19 144 0.0 0.0 0.00 0.00 0.00 86 1013.2
20260902044125 19 144 0.0 0.0 0.00 0.00 0.00 87 1013.4
20260902043623 19 143 0.0 0.0 0.00 0.00 0.00 87 1013.5
20260902043119 19 143 0.0 0.0 0.00 0.00 0.00 87 1013.4
20260902042615 19 143 0.0 0.0 0.00 0.00 0.00 86 1013.2
20260902042121 19 143 0.0 0.0 0.00 0.00 0.00 85 1012.8
20260902042117 19 144 0.0 0.0 0.00 0.00 0.00 86 1013.0
20260902041115 20 144 0.0 0.0 0.00 0.00 0.00 84 1012.8
20260902040614 20 143 0.0 0.0 0.00 0.00 0.00 84 1013.1
20260902040113 20 143 0.0 0.0 0.00 0.00 0.00 84 1013.2
20260902035614 20 144 0.0 0.0 0.00 0.00 0.00 85 1013.2
20260902035114 20 143 0.0 0.0 0.00 0.00 0.00 85 1013.4
20260902034615 20 144 0.0 0.0 0.00 0.00 0.00 84 1013.2
20260902034110 20 144 0.0 0.0 0.00 0.00 0.00 83 1013.4
20260902033609 20 144 0.0 0.0 0.00 0.00 0.00 83 1013.5
20260902033109 20 143 0.0 0.0 0.00 0.00 0.00 83 1013.8
20260902032611 20 143 0.0 0.0 0.00 0.00 0.00 83 1013.9
20260902032110 20 144 0.0 0.0 0.00 0.00 0.00 84 1014.0
20260902031610 20 143 0.0 0.0 0.00 0.00 0.00 82 1013.9
20260902031109 20 143 0.0 0.0 0.00 0.00 0.00 82 1013.8
20260902030609 20 144 0.0 0.0 0.00 0.00 0.00 81 1013.6
20260902030342 20 144 0.0 0.0 0.00 0.00 0.00 81 1013.7
20260902025836 20 144 0.0 0.0 0.00 0.00 0.00 79 1013.7
20260902025107 20 144 0.0 0.0 0.00 0.00 0.00 79 1013.6
20260902024606 21 144 0.0 0.0 0.00 0.00 0.00 78 1013.5
20260902024106 21 144 0.0 0.0 0.00 0.00 0.00 78 1013.2
20260902023606 21 143 0.0 0.0 0.00 0.00 0.00 77 1013.4
20260902023336 21 144 0.0 0.0 0.00 0.00 0.00 75 1013.4
20260902022605 21 144 0.0 0.0 0.00 0.00 0.00 75 1013.5
20260902022105 21 143 0.0 0.0 0.00 0.00 0.00 74 1013.5
20260902021606 21 143 0.0 0.0 0.00 0.00 0.00 74 1013.5
20260902021101 21 143 0.0 0.0 0.00 0.00 0.00 74 1013.5
20260902020833 22 144 0.0 0.0 0.00 0.00 0.00 73 1013.5
20260902015602 22 144 0.0 0.0 0.00 0.00 0.00 73 1013.2
20260902015335 22 143 0.0 0.0 0.00 0.00 0.00 71 1013.4
20260902014601 22 144 0.0 0.0 0.00 0.00 0.00 69 1013.2
20260902014102 23 144 0.0 0.0 0.00 0.00 0.00 69 1013.2
20260902013832 23 144 0.0 0.0 0.00 0.00 0.00 68 1013.2
20260902013103 23 144 0.0 0.0 0.00 0.00 0.00 67 1013.1
20260902012559 23 144 0.0 0.0 0.00 0.00 0.00 66 1013.0
20260902012329 23 144 0.0 0.0 0.00 0.00 0.00 66 1012.9
20260902011559 23 144 0.0 0.0 0.00 0.00 0.00 65 1012.9
20260902011059 24 144 0.0 0.0 0.00 0.00 0.00 67 1012.9
20260902010558 24 144 0.0 0.0 0.00 0.00 0.00 64 1012.7
20260902010101 24 144 0.0 0.0 0.00 0.00 0.00 63 1012.6
20260902005600 24 143 0.0 0.0 0.00 0.00 0.00 64 1012.7
20260902005100 24 143 0.0 0.0 0.00 0.00 0.00 66 1012.8
20260902004602 25 143 0.0 0.0 0.00 0.00 0.00 61 1013.0
20260902004056 25 143 0.0 0.0 0.00 0.00 0.00 61 1012.9
20260902003556 25 143 0.0 0.0 0.00 0.00 0.00 61 1012.9
20260902003057 25 143 0.0 0.0 0.00 0.00 0.00 61 1013.0
20260902002555 25 143 0.0 0.0 0.00 0.00 0.00 60 1012.9
20260902002054 25 144 0.0 0.0 0.00 0.00 0.00 60 1013.0
20260902001555 25 143 0.0 0.0 0.00 0.00 0.00 58 1013.0
20260902001055 26 144 0.0 0.0 0.00 0.00 0.00 56 1013.1
20260902000553 26 143 0.0 0.0 0.00 0.00 0.00 56 1013.2
20260902000055 26 143 0.0 0.0 0.00 0.00 0.00 55 1013.0
20260901235551 27 143 0.0 0.0 0.00 0.00 0.00 54 1012.9
20260901235051 27 143 0.0 0.0 0.00 0.00 0.00 52 1013.1
20260901234550 27 143 0.0 0.0 0.00 0.00 0.00 52 1013.2
20260901234047 28 143 0.0 1.6 0.00 0.00 0.00 52 1013.2
20260901233551 28 143 0.0 1.6 0.00 0.00 0.00 51 1013.2
20260901233320 28 134 0.0 3.2 0.00 0.00 0.00 48 1013.1
20260901232549 28 140 0.0 3.2 0.00 0.00 0.00 48 1013.0
20260901232046 28 149 0.0 1.6 0.00 0.00 0.00 48 1013.0
20260901231545 29 158 0.0 3.2 0.00 0.00 0.00 46 1013.0
20260901231043 29 159 0.0 4.8 0.00 0.00 0.00 47 1013.1
20260901230545 29 146 0.0 4.8 0.00 0.00 0.00 48 1013.0
20260901230043 29 125 1.6 4.8 0.00 0.00 0.00 46 1013.1
20260901225540 29 148 1.6 4.8 0.00 0.00 0.00 45 1013.2
20260901225306 29 132 1.6 3.2 0.00 0.00 0.00 45 1013.2
20260901224538 29 132 0.0 3.2 0.00 0.00 0.00 50 1013.2
20260901224029 28 157 0.0 1.6 0.00 0.00 0.00 50 1013.1
20260901223528 28 136 0.0 1.6 0.00 0.00 0.00 48 1013.1
20260901223027 28 143 0.0 3.2 0.00 0.00 0.00 47 1013.0
20260901222527 28 140 1.6 3.2 0.00 0.00 0.00 45 1013.1
20260901222026 29 154 0.0 3.2 0.00 0.00 0.00 43 1013.0
20260901221525 29 228 1.6 8.0 0.00 0.00 0.00 42 1013.0
20260901221021 29 226 1.6 8.0 0.00 0.00 0.00 41 1013.0
20260901220522 29 218 1.6 6.4 0.00 0.00 0.00 43 1013.1
20260901220020 29 238 1.6 4.8 0.00 0.00 0.00 42 1013.0
20260901215521 29 169 1.6 4.8 0.00 0.00 0.00 44 1013.0
20260901215019 30 214 0.0 3.2 0.00 0.00 0.00 42 1013.0
20260901214518 30 190 1.6 4.8 0.00 0.00 0.00 41 1012.9
20260901214248 30 149 3.2 4.8 0.00 0.00 0.00 41 1012.9
20260901213748 30 156 1.6 4.8 0.00 0.00 0.00 40 1012.8
20260901213016 30 167 1.6 4.8 0.00 0.00 0.00 40 1012.7
20260901212515 30 222 1.6 3.2 0.00 0.00 0.00 38 1012.7
20260901212019 30 170 1.6 3.2 0.00 0.00 0.00 39 1012.8
20260901211512 30 154 1.6 3.2 0.00 0.00 0.00 40 1012.7
20260901211005 30 146 0.0 3.2 0.00 0.00 0.00 38 1012.6
20260901210457 30 133 0.0 4.8 0.00 0.00 0.00 38 1012.7
20260901205957 31 214 1.6 4.8 0.00 0.00 0.00 36 1012.8
20260901205456 31 208 1.6 4.8 0.00 0.00 0.00 36 1012.8
20260901205225 31 136 1.6 4.8 0.00 0.00 0.00 35 1012.8
20260901204452 31 159 1.6 8.0 0.00 0.00 0.00 34 1013.0
20260901203950 31 134 3.2 8.0 0.00 0.00 0.00 34 1013.1
20260901203448 32 112 3.2 6.4 0.00 0.00 0.00 33 1013.1
20260901203220 32 273 1.6 6.4 0.00 0.00 0.00 33 1013.1
20260901202721 32 217 1.6 6.4 0.00 0.00 0.00 32 1013.1
20260901202619 32 148 1.6 6.4 0.00 0.00 0.00 32 1013.2
20260901201449 32 159 1.6 6.4 0.00 0.00 0.00 33 1013.2
20260901200945 32 174 1.6 8.0 0.00 0.00 0.00 35 1013.2
20260901200447 32 201 1.6 8.0 0.00 0.00 0.00 32 1013.2
20260901195946 32 120 1.6 8.0 0.00 0.00 0.00 35 1013.2
20260901195446 31 107 3.2 6.4 0.00 0.00 0.00 34 1013.4
20260901194950 31 212 1.6 4.8 0.00 0.00 0.00 37 1013.5
20260901194946 31 196 1.6 6.4 0.00 0.00 0.00 35 1013.4
20260901194219 31 201 1.6 6.4 0.00 0.00 0.00 38 1013.5
20260901193446 31 159 1.6 6.4 0.00 0.00 0.00 38 1013.6
20260901192940 31 221 1.6 6.4 0.00 0.00 0.00 38 1013.5
20260901192434 32 176 1.6 8.0 0.00 0.00 0.00 37 1013.5
20260901191928 32 257 1.6 8.0 0.00 0.00 0.00 38 1013.5
20260901191421 31 212 0.0 4.8 0.00 0.00 0.00 41 1013.5
20260901190923 31 42 0.0 1.6 0.00 0.00 0.00 41 1013.6
20260901190422 31 102 0.0 1.6 0.00 0.00 0.00 44 1013.7
20260901185924 30 45 0.0 1.6 0.00 0.00 0.00 39 1013.7
20260901185424 30 54 0.0 3.2 0.00 0.00 0.00 41 1013.8
20260901184923 30 194 0.0 3.2 0.00 0.00 0.00 42 1013.8
20260901184421 30 156 0.0 3.2 0.00 0.00 0.00 45 1013.7
20260901183918 30 162 0.0 3.2 0.00 0.00 0.00 43 1013.8
20260901183417 30 141 0.0 4.8 0.00 0.00 0.00 44 1013.9
20260901182917 30 136 0.0 4.8 0.00 0.00 0.00 40 1014.0
20260901182418 30 169 0.0 3.2 0.00 0.00 0.00 43 1014.0
20260901181916 30 175 1.6 6.4 0.00 0.00 0.00 40 1014.1
20260901181645 30 166 1.6 6.4 0.00 0.00 0.00 40 1014.2
20260901180913 31 193 1.6 6.4 0.00 0.00 0.00 40 1014.2
20260901180412 30 215 1.6 6.4 0.00 0.00 0.00 40 1014.3
20260901180144 30 113 1.6 6.4 0.00 0.00 0.00 44 1014.3
20260901175411 30 162 1.6 6.4 0.00 0.00 0.00 41 1014.3
20260901175142 30 256 1.6 6.4 0.00 0.00 0.00 45 1014.5
20260901174406 30 115 1.6 4.8 0.00 0.00 0.00 43 1014.6
20260901173859 30 131 0.0 4.8 0.00 0.00 0.00 44 1014.7
20260901173354 30 351 0.0 1.6 0.00 0.00 0.00 46 1014.6
20260901172847 29 24 0.0 3.2 0.00 0.00 0.00 50 1014.6
20260901172342 29 136 0.0 3.2 0.00 0.00 0.00 48 1014.6
20260901171836 29 146 1.6 4.8 0.00 0.00 0.00 47 1014.7
20260901171603 29 149 1.6 4.8 0.00 0.00 0.00 46 1014.7
20260901171326 29 138 0.0 1.6 0.00 0.00 0.00 50 1014.8
20260901170318 28 115 0.0 1.6 0.00 0.00 0.00 47 1014.8
20260901165808 28 115 0.0 1.6 0.00 0.00 0.00 56 1014.7
20260901165306 28 77 0.0 1.6 0.00 0.00 0.00 57 1014.7
20260901164756 28 205 0.0 1.6 0.00 0.00 0.00 53 1014.7
20260901164522 28 129 0.0 1.6 0.00 0.00 0.00 58 1014.7
20260901163744 27 96 0.0 1.6 0.00 0.00 0.00 57 1014.6
20260901163238 27 8 0.0 1.6 0.00 0.00 0.00 57 1014.7
20260901162732 27 179 0.0 1.6 0.00 0.00 0.00 59 1014.6
20260901162226 27 49 0.0 1.6 0.00 0.00 0.00 61 1014.6
20260901161720 26 44 0.0 1.6 0.00 0.00 0.00 62 1014.6
20260901161214 26 129 0.0 1.6 0.00 0.00 0.00 63 1014.8
20260901160708 26 134 0.0 1.6 0.00 0.00 0.00 63 1014.8
20260901160432 26 103 0.0 3.2 0.00 0.00 0.00 64 1014.8
20260901155656 26 130 0.0 3.2 0.00 0.00 0.00 69 1014.8
20260901155150 26 201 0.0 1.6 0.00 0.00 0.00 69 1014.9
20260901154644 26 128 0.0 3.2 0.00 0.00 0.00 69 1014.8
20260901154138 25 130 0.0 3.2 0.00 0.00 0.00 70 1014.8
20260901153634 25 113 0.0 1.6 0.00 0.00 0.00 69 1014.8
20260901153629 25 96 0.0 1.6 0.00 0.00 0.00 71 1014.9
20260901152620 25 93 0.0 1.6 0.00 0.00 0.00 70 1014.9
20260901152114 25 72 0.0 1.6 0.00 0.00 0.00 69 1014.9
20260901151607 25 145 0.0 1.6 0.00 0.00 0.00 69 1014.8
20260901151102 25 125 0.0 1.6 0.00 0.00 0.00 72 1014.9
20260901150556 24 47 0.0 1.6 0.00 0.00 0.00 72 1014.9
20260901150050 24 104 0.0 1.6 0.00 0.00 0.00 73 1015.0
20260901145814 23 133 0.0 1.6 0.00 0.00 0.00 78 1015.0
20260901145038 23 136 0.0 3.2 0.00 0.00 0.00 78 1014.9
20260901144532 23 135 0.0 3.2 0.00 0.00 0.00 77 1014.9
20260901144026 22 111 0.0 3.2 0.00 0.00 0.00 78 1014.9
20260901143521 22 240 0.0 4.8 0.00 0.00 0.00 81 1015.0
20260901143516 22 140 0.0 4.8 0.00 0.00 0.00 83 1014.9
20260901142509 21 108 0.0 4.8 0.00 0.00 0.00 86 1014.9
20260901142001 21 149 0.0 3.2 0.00 0.00 0.00 88 1014.9
20260901141456 21 158 0.0 1.6 0.00 0.00 0.00 89 1014.9
20260901141218 20 97 0.0 3.2 0.00 0.00 0.00 90 1014.9
20260901141053 20 174 0.0 3.2 0.00 0.00 0.00 90 1014.9
20260901135938 20 107 0.0 3.2 0.00 0.00 0.00 92 1014.9
20260901135704 20 146 0.0 3.2 0.00 0.00 0.00 93 1015.0
20260901134926 19 169 0.0 3.2 0.00 0.00 0.00 94 1015.0
20260901134420 19 191 0.0 3.2 0.00 0.00 0.00 96 1015.1
20260901133914 18 132 0.0 3.2 0.00 0.00 0.00 97 1015.1
20260901133408 18 122 0.0 3.2 0.00 0.00 0.00 98 1015.0
20260901132902 18 134 0.0 3.2 0.00 0.00 0.00 98 1014.9
20260901132626 18 150 0.0 1.6 0.00 0.00 0.00 98 1014.9
20260901131849 17 121 0.0 0.0 0.00 0.00 0.00 98 1014.8
20260901131344 17 121 0.0 1.6 0.00 0.00 0.00 98 1014.7
20260901130838 17 122 0.0 1.6 0.00 0.00 0.00 98 1014.7
20260901130332 17 121 0.0 0.0 0.00 0.00 0.00 98 1014.7
20260901125826 17 121 0.0 0.0 0.00 0.00 0.00 97 1014.7
20260901125320 16 122 0.0 0.0 0.00 0.00 0.00 97 1014.6
20260901125048 16 121 0.0 0.0 0.00 0.00 0.00 97 1014.6
20260901124813 16 121 0.0 0.0 0.00 0.00 0.00 97 1014.6
20260901123802 16 121 0.0 0.0 0.00 0.00 0.00 97 1014.5
20260901123256 16 121 0.0 0.0 0.00 0.00 0.00 97 1014.5
20260901122750 15 121 0.0 0.0 0.00 0.00 0.00 97 1014.5
20260901122244 15 121 0.0 0.0 0.00 0.00 0.00 97 1014.5
20260901121738 15 122 0.0 0.0 0.00 0.00 0.00 97 1014.5
20260901121502 15 122 0.0 0.0 0.00 0.00 0.00 97 1014.5
20260901120726 16 121 0.0 0.0 0.00 0.00 0.00 97 1014.5
20260901120451 16 121 0.0 0.0 0.00 0.00 0.00 97 1014.4
20260901115714 16 121 0.0 0.0 0.00 0.00 0.00 97 1014.4
20260901115207 15 122 0.0 0.0 0.00 0.00 0.00 97 1014.2
20260901114701 15 121 0.0 0.0 0.00 0.00 0.00 97 1014.2
20260901114156 15 122 0.0 0.0 0.00 0.00 0.00 97 1014.1
20260901113650 15 122 0.0 0.0 0.00 0.00 0.00 97 1014.1
20260901113144 15 122 0.0 0.0 0.00 0.00 0.00 97 1014.1
20260901112910 15 121 0.0 0.0 0.00 0.00 0.00 97 1014.0
20260901112404 15 122 0.0 0.0 0.00 0.00 0.00 97 1014.0
20260901111626 14 121 0.0 0.0 0.00 0.00 0.00 97 1014.0
20260901111120 14 121 0.0 0.0 0.00 0.00 0.00 96 1014.0
20260901110846 14 121 0.0 0.0 0.00 0.00 0.00 96 1013.9
20260901110339 14 122 0.0 0.0 0.00 0.00 0.00 96 1013.9
20260901105602 14 121 0.0 0.0 0.00 0.00 0.00 96 1013.9
20260901105327 14 121 0.0 0.0 0.00 0.00 0.00 95 1014.0
20260901104822 14 121 0.0 0.0 0.00 0.00 0.00 96 1014.0
20260901104044 15 122 0.0 0.0 0.00 0.00 0.00 96 1013.9
20260901103538 15 122 0.0 0.0 0.00 0.00 0.00 96 1013.8
20260901103032 15 122 0.0 0.0 0.00 0.00 0.00 96 1013.8
20260901102525 15 122 0.0 0.0 0.00 0.00 0.00 96 1013.8
20260901102020 15 121 0.0 0.0 0.00 0.00 0.00 96 1013.8
20260901101514 15 121 0.0 0.0 0.00 0.00 0.00 97 1013.7
20260901101008 14 122 0.0 1.6 0.00 0.00 0.00 95 1013.6
20260901100502 15 121 0.0 1.6 0.00 0.00 0.00 95 1013.5
20260901095956 15 121 0.0 0.0 0.00 0.00 0.00 95 1013.5
20260901095451 15 122 0.0 0.0 0.00 0.00 0.00 95 1013.5
20260901095215 15 122 0.0 0.0 0.00 0.00 0.00 95 1013.4
20260901094437 16 122 0.0 0.0 0.00 0.00 0.00 97 1013.2